Погода в Каракуле

Узбекистан     39°31′53″N   63°50′07″E
темп.,
°C
ветер,
м/с
пор.,
м/с
влажн.,
%
обл.,
%
осадки,
мм/ч
давл.,
гПа
погр.,
м
3 марта, ср
ср323:00+8ссз594971 0.0 1024250
02:00+6с46590 0.0 1024140
05:00+5ссв46700 0.0 1023138
08:00+4ссв46660 0.0 1023176
11:00+10св22430 0.0 1023432
14:00+14сз22330 0.0 10211135
17:00+15ссз21300 0.0 10201301
20:00+11св45400 0.0 1019145
4 марта, чт
чт423:00+10всв45430 0.0 101993
02:00+9в45460 0.0 101883
05:00+9в344921 0.0 101645
08:00+10юв464733 0.1 101794
11:00+16ю7104847 1.3 1016873
14:00+20з993733 0.1 10161688
17:00+15сз11123667 0.3 10191308
20:00+11ссз695367 0.0 10231132
5 марта, пт
пт523:00+8ссз566382 0.1 1027866
02:00+6ссв476318 0.0 1029280
05:00+4св46709 0.0 1029148
08:00+4всв48660 0.0 1029244
11:00+10всв67340 0.0 1028681
14:00+13в55270 0.0 10231104
17:00+15в55230 0.0 10191083
20:00+12всв582967 0.0 1017225
6 марта, сб
сб623:00+12всв6104181 0.0 1014286
02:00+11всв695098 0.0 1011254
05:00+9всв577599 3.6 1009294
08:00+8ссв71088100 9.9 1009320
11:00+7св81186100 15.1 1011411
14:00+7ссз5689100 3.1 1011370
17:00+4ссз111488100 9.8 1013465
20:00+4ссз71188100 2.5 1017517
7 марта, вс
вс723:00+3сз91193100 3.6 1020443
02:00+4зсз3770100 0.0 1020652
05:00+4юз356896 0.0 1020225
08:00+4ююз357099 0.0 1021275
11:00+7ю454776 0.0 1020764
14:00+11ю45310 0.0 10181069
17:00+12юв45270 0.0 10161124
20:00+10юв453630 0.0 1016127